Regional Weather Roundup
Issued by NWS Charleston, WV

Home | Current Version | Previous Version | Graphics & Text | Print | Product List | Glossary On
Versions: 1 2 3 4 5 6 7 8 9 10 11 12 13 14 15 16 17 18 19 20 21 22 23 24 25 26 27 28 29 30 31 32 33 34 35 36 37 38 39 40 41 42 43 44 45 46 47 48 49 50
000
ASUS41 KRLX 181610
RWRRLX
West Virginia Regional Weather Roundup
National Weather Service Charleston WV
1200 PM EDT THU SEP 18 2014

Note: "fair" indicates few or no clouds below 12,000 feet with no
significant weather and/or obstructions to visibility.

WVZ003-181700-
Northern Panhandle of West Virginia

CITY           SKY/WX    TMP DP  RH WIND       PRES   REMARKS
WHEELING       SUNNY     65  46  50 NE8       30.10R
$$

WVZ009-181700-
Northwest West Virginia

CITY           SKY/WX    TMP DP  RH WIND       PRES   REMARKS
PARKERSBURG    SUNNY     68  48  48 N8        30.11R
$$

WVZ006-181700-
Western West Virginia

CITY           SKY/WX    TMP DP  RH WIND       PRES   REMARKS
HUNTINGTON     SUNNY     68  54  60 N7        30.07S
$$

WVZ015-181700-
West Central West Virginia

CITY           SKY/WX    TMP DP  RH WIND       PRES   REMARKS
CHARLESTON     MOSUNNY   67  58  72 N5        30.07R
$$

WVZ031-181700-
North Central West Virginia

CITY           SKY/WX    TMP DP  RH WIND       PRES   REMARKS
CLARKSBURG     SUNNY     65  51  60 NE13G20   30.08S
MORGANTOWN     SUNNY     66  51  58 NE8       30.09F
$$

WVZ035-042-045-181700-
South Central West Virginia

CITY           SKY/WX    TMP DP  RH WIND       PRES   REMARKS
BECKLEY        PTSUNNY   65  49  56 N5        30.09S
BLUEFIELD      PTSUNNY   65  51  60 CALM      30.11R
LEWISBURG      MOSUNNY   67  54  61 SW5       30.07F
$$

WVZ047-181700-
Northern Mountains of West Virginia

CITY           SKY/WX    TMP DP  RH WIND       PRES   REMARKS
ELKINS         SUNNY     67  51  56 VRB3      30.07F
$$

WVZ052-181700-
Eastern Panhandle of West Virginia

CITY           SKY/WX    TMP DP  RH WIND       PRES   REMARKS
MARTINSBURG    MOSUNNY   73  50  44 N8        30.03F
PETERSBURG     MOSUNNY   71  48  43 E6        30.05F
$$



USA.gov is the U.S. government's official web portal to all federal, state and local government web resources and services.